Location: Fort Worth, Tx
(32.7431°N, 97.3695°W)
Time: 06:58:53
(UTC-05:00)

Explorer 11/Cluster Stage 4 - Pass Details

Date: 15 February 2026
Orbit: 463 x 1176 km, 28.8° (Epoch: 5 March)

Event Time Altitude Azimuth Distance (km) Brightness Sun altitude
Rises 19:36:22 0° 266° (W) 2,527 11.7 -5.2°
Reaches altitude 10° 19:38:40 10° 253° (WSW) 1,699 10.2 -5.7°
Maximum altitude 19:41:58 27° 194° (SSW) 1,066 7.6 -6.3°
Drops below altitude 10° 19:45:42 10° 136° (SE) 1,943 8.3 -7.1°
Sets 19:48:31 0° 125° (SE) 2,977 9.1 -7.7°
